Regional Weather Roundup
Issued by NWS Jackson, KY

Home | Current Version | Previous Version | Text Only | Print | Product List | Glossary Off
Versions: 1 2 3 4 5 6 7 8 9 10 11 12 13 14 15 16 17 18 19 20 21 22 23 24 25 26 27 28 29 30 31 32 33 34 35 36 37 38 39 40 41 42 43 44 45 46 47 48 49 50

000
ASUS43 KJKL 152010
RWRJKL

EAST KENTUCKY HOURLY WEATHER ROUNDUP
NATIONAL WEATHER SERVICE JACKSON KY
400 PM EDT MON SEP 15 2014

NOTE: "FAIR" INDICATES FEW OR NO CLOUDS BELOW 12,000 FEET WITH
NO SIGNIFICANT WEATHER AND/OR OBSTRUCTIONS TO VISIBILITY.

* THESE REPORTS ARE NOT UNDER NWS QUALITY CONTROL AND MAY NOT
  REPORT WEATHER SUCH AS PRECIPITATION AND FOG.

KYZ079-080-083-085-087-088-110-112-115-119-120-152100
...EASTERN KENTUCKY...

CITY           SKY/WX    TMP DP  RH WIND       PRES   REMARKS
JACKSON        MOSUNNY   74  59  59 VRB3      30.15S
LONDON         CLOUDY    74  56  53 W6        30.16F
MONTICELLO*    CLOUDY    73  63  71 CALM      30.16F
WILLIAMSBURG*  SUNNY     72  64  78 CALM      30.16S
MIDDLESBORO*   CLOUDY    74  64  70 S5        30.15S
HARLAN APT*    CLOUDY    75  57  53 MISG      30.16S
HAZARD APT*    CLEAR     75  55  50 SW5       30.15S
BLACK MTN*       N/A     64  57  77 SW3         N/A
PIKEVILLE APT* MOSUNNY   72  59  64 CALM      30.15F
BIG SANDY*     MOCLDY    73  59  62 CALM      30.15R
MOREHEAD APT*  MOCLDY    73  55  53 SW9       30.16S
$$

KYZ035-036-041-042-044-050-067-078-099-152100
...CENTRAL KENTUCKY...

CITY           SKY/WX    TMP DP  RH WIND       PRES   REMARKS
MT STERLING*   PTSUNNY   73  55  53 W9        30.16S
FLEMING/MASON* SUNNY     72  54  53 NW9       30.16R
DANVILLE*      PTSUNNY   75  59  57 SW6       30.16R
RICHMOND*      PTSUNNY   73  57  56 CALM      30.13F
LEXINGTON      MOSUNNY   76  54  46 SW6       30.15S
$$

KYZ091>093-OHZ055-061-077-WVZ005-015-034-035-042-152100
...SOUTHERN OHIO/WEST VIRGINIA...

CITY           SKY/WX    TMP DP  RH WIND       PRES   REMARKS
COVINGTON      CLOUDY    70  52  52 SW5       30.14F
COLUMBUS       CLOUDY    73  46  38 W7        30.12S
DAYTON         CLOUDY    68  50  52 S10       30.12F
WILMINGTON     CLOUDY    71  51  49 SW8       30.14F
HUNTINGTON     PTSUNNY   70  56  61 W5        30.13F
PINEVILLE*     PTSUNNY   76  65  70 MISG      30.20S
BECKLEY        PTSUNNY   71  55  56 W10G18    30.18F
BLUEFIELD      CLOUDY    73  56  54 NW7       30.19F
$$

VAZ002-007-008-TNZ017-027-036-066-071-152100
...SOUTHWEST VIRGINIA/EAST TENNESSEE...

CITY           SKY/WX    TMP DP  RH WIND       PRES   REMARKS
WISE*          CLOUDY    70  57  64 SW10      30.21S
JONESVILLE*    CLOUDY    75  63  64 SW6       30.18S
ABINGDON*      CLOUDY    74  63  69 W8        30.18S
BRISTOL        CLOUDY    75  61  61 W8        30.16S
KNOXVILLE      PTSUNNY   77  66  68 W8        30.14S
OAK RIDGE      CLOUDY    75  66  73 VRB5      30.16F
CROSSVILLE     CLOUDY    74  62  66 NW8       30.18F
NASHVILLE      CLOUDY    75  60  59 NW6       30.14F
$$

...KEY TO REMARKS...
VSB - VISIBILITY IN MILES
WCI - WIND CHILL INDEX
HX  - HEAT INDEX

$$


USA.gov is the U.S. government's official web portal to all federal, state and local government web resources and services.